Wetterdaten: Freitag, 20.02.2015
Datum Zeit Temp. A. Feuchte A. Luftdruck Regen Wind Richtung Richtung Sonnenschein ET UV Solar Taupunkt Windchill Windben Empfang
20.02.2015 00:00 -4,5 C 81 % 1027,9 hPa 0,0 l/m 0,0 km/h (0 Bft) S 183 0 min 0,000 mm 0,0 UV-I 0 W/m -7,3 C -4,5 C 0,0 km/h (0 Bft) 0,00 %
20.02.2015 00:15 -4,3 C 81 % 1027,8 hPa 0,0 l/m 0,0 km/h (0 Bft) S 191 0 min 0,000 mm 0,0 UV-I 0 W/m -7,1 C -4,3 C 0,0 km/h (0 Bft) 0,00 %
20.02.2015 00:30 -3,9 C 82 % 1027,7 hPa 0,0 l/m 0,0 km/h (0 Bft) S-SW 193 0 min 0,000 mm 0,0 UV-I 0 W/m -6,5 C -3,9 C 0,0 km/h (0 Bft) 0,00 %
20.02.2015 00:45 -3,9 C 82 % 1027,4 hPa 0,0 l/m 0,0 km/h (0 Bft) S 189 0 min 0,000 mm 0,0 UV-I 0 W/m -6,5 C -3,9 C 0,0 km/h (0 Bft) 0,00 %
20.02.2015 01:00 -3,8 C 81 % 1027,4 hPa 0,0 l/m 0,0 km/h (0 Bft) S-SW 204 0 min 0,000 mm 0,0 UV-I 0 W/m -6,6 C -3,8 C 0,0 km/h (0 Bft) 0,00 %
20.02.2015 01:15 -4,2 C 81 % 1027,3 hPa 0,0 l/m 0,0 km/h (0 Bft) S-SW 197 0 min 0,000 mm 0,0 UV-I 0 W/m -7,0 C -4,2 C 0,0 km/h (0 Bft) 0,00 %
20.02.2015 01:30 -4,5 C 81 % 1027,2 hPa 0,0 l/m 0,0 km/h (0 Bft) S-SW 199 0 min 0,000 mm 0,0 UV-I 0 W/m -7,3 C -4,5 C 0,0 km/h (0 Bft) 0,00 %
20.02.2015 01:45 -4,5 C 82 % 1027,2 hPa 0,0 l/m 0,0 km/h (0 Bft) S 188 0 min 0,000 mm 0,0 UV-I 0 W/m -7,1 C -4,5 C 0,0 km/h (0 Bft) 0,00 %
20.02.2015 02:00 -4,5 C 82 % 1027,0 hPa 0,0 l/m 0,0 km/h (0 Bft) S-SW 198 0 min 0,000 mm 0,0 UV-I 0 W/m -7,1 C -4,5 C 0,0 km/h (0 Bft) 0,00 %
20.02.2015 02:15 -4,9 C 81 % 1026,9 hPa 0,0 l/m 0,0 km/h (0 Bft) S-SW 192 0 min 0,000 mm 0,0 UV-I 0 W/m -7,6 C -4,9 C 0,0 km/h (0 Bft) 0,00 %
20.02.2015 02:30 -5,1 C 81 % 1026,7 hPa 0,0 l/m 0,0 km/h (0 Bft) S 184 0 min 0,000 mm 0,0 UV-I 0 W/m -7,8 C -5,1 C 0,0 km/h (0 Bft) 0,00 %
20.02.2015 02:45 -4,6 C 82 % 1026,6 hPa 0,0 l/m 0,0 km/h (0 Bft) S-SW 196 0 min 0,000 mm 0,0 UV-I 0 W/m -7,2 C -4,6 C 0,0 km/h (0 Bft) 0,00 %
20.02.2015 03:00 -4,7 C 81 % 1026,3 hPa 0,0 l/m 0,0 km/h (0 Bft) SW 214 0 min 0,000 mm 0,0 UV-I 0 W/m -7,4 C -4,7 C 0,0 km/h (0 Bft) 0,00 %
20.02.2015 03:15 -5,0 C 81 % 1026,3 hPa 0,0 l/m 0,0 km/h (0 Bft) S-SW 204 0 min 0,000 mm 0,0 UV-I 0 W/m -7,7 C -5,0 C 0,0 km/h (0 Bft) 0,00 %
20.02.2015 03:30 -4,7 C 82 % 1026,2 hPa 0,0 l/m 0,0 km/h (0 Bft) S-SW 213 0 min 0,000 mm 0,0 UV-I 0 W/m -7,3 C -4,7 C 0,0 km/h (0 Bft) 0,00 %
20.02.2015 03:45 -4,8 C 81 % 1026,3 hPa 0,0 l/m 0,0 km/h (0 Bft) S-SW 211 0 min 0,000 mm 0,0 UV-I 0 W/m -7,5 C -4,8 C 0,0 km/h (0 Bft) 0,00 %
20.02.2015 04:00 -5,0 C 81 % 1026,0 hPa 0,0 l/m 0,0 km/h (0 Bft) S 189 0 min 0,000 mm 0,0 UV-I 0 W/m -7,7 C -5,0 C 0,0 km/h (0 Bft) 0,00 %
20.02.2015 04:15 -5,0 C 81 % 1026,1 hPa 0,0 l/m 0,0 km/h (0 Bft) S-SW 204 0 min 0,000 mm 0,0 UV-I 0 W/m -7,7 C -5,0 C 0,0 km/h (0 Bft) 0,00 %
20.02.2015 04:30 -5,1 C 81 % 1025,9 hPa 0,0 l/m 0,0 km/h (0 Bft) S-SW 196 0 min 0,000 mm 0,0 UV-I 0 W/m -7,8 C -5,1 C 0,0 km/h (0 Bft) 0,00 %
20.02.2015 04:45 -5,0 C 81 % 1025,8 hPa 0,0 l/m 0,0 km/h (0 Bft) S-SW 202 0 min 0,000 mm 0,0 UV-I 0 W/m -7,7 C -5,0 C 0,0 km/h (0 Bft) 0,00 %
20.02.2015 05:00 -5,0 C 81 % 1025,7 hPa 0,0 l/m 0,0 km/h (0 Bft) S-SW 203 0 min 0,000 mm 0,0 UV-I 0 W/m -7,7 C -5,0 C 0,0 km/h (0 Bft) 0,00 %
20.02.2015 05:15 -5,1 C 81 % 1025,6 hPa 0,0 l/m 0,0 km/h (0 Bft) S-SW 197 0 min 0,000 mm 0,0 UV-I 0 W/m -7,8 C -5,1 C 0,0 km/h (0 Bft) 0,00 %
20.02.2015 05:30 -5,2 C 81 % 1025,6 hPa 0,0 l/m 0,0 km/h (0 Bft) S-SW 210 0 min 0,000 mm 0,0 UV-I 0 W/m -7,9 C -5,2 C 0,0 km/h (0 Bft) 0,00 %
20.02.2015 05:45 -5,3 C 81 % 1025,5 hPa 0,0 l/m 0,0 km/h (0 Bft) S 176 0 min 0,000 mm 0,0 UV-I 0 W/m -8,0 C -5,3 C 0,0 km/h (0 Bft) 0,00 %
20.02.2015 06:00 -5,2 C 81 % 1025,4 hPa 0,0 l/m 0,0 km/h (0 Bft) S-SW 208 0 min 0,000 mm 0,0 UV-I 0 W/m -7,9 C -5,2 C 0,0 km/h (0 Bft) 0,00 %
20.02.2015 06:15 -5,4 C 80 % 1025,3 hPa 0,0 l/m 0,0 km/h (0 Bft) S-SW 211 0 min 0,000 mm 0,0 UV-I 0 W/m -8,3 C -5,4 C 0,0 km/h (0 Bft) 0,00 %
20.02.2015 06:30 -5,4 C 80 % 1025,4 hPa 0,0 l/m 0,0 km/h (0 Bft) S-SW 202 0 min 0,000 mm 0,0 UV-I 0 W/m -8,3 C -5,4 C 0,0 km/h (0 Bft) 0,00 %
20.02.2015 06:45 -5,5 C 80 % 1025,4 hPa 0,0 l/m 0,0 km/h (0 Bft) S-SW 197 0 min 0,000 mm 0,0 UV-I 0 W/m -8,4 C -5,5 C 0,0 km/h (0 Bft) 0,00 %
20.02.2015 07:00 -5,6 C 81 % 1025,6 hPa 0,0 l/m 0,0 km/h (0 Bft) S-SW 200 0 min 0,000 mm 0,0 UV-I 0 W/m -8,3 C -5,6 C 0,0 km/h (0 Bft) 0,00 %
20.02.2015 07:15 -5,5 C 80 % 1025,4 hPa 0,0 l/m 0,0 km/h (0 Bft) S-SW 202 0 min 0,000 mm 0,0 UV-I 1 W/m -8,4 C -5,5 C 0,0 km/h (0 Bft) 0,00 %
20.02.2015 07:30 -5,3 C 80 % 1025,4 hPa 0,0 l/m 0,0 km/h (0 Bft) S 189 0 min 0,000 mm 0,0 UV-I 17 W/m -8,2 C -5,3 C 0,0 km/h (0 Bft) 0,00 %
20.02.2015 07:45 -4,8 C 81 % 1025,4 hPa 0,0 l/m 0,0 km/h (0 Bft) S-SW 198 0 min 0,000 mm 0,0 UV-I 31 W/m -7,5 C -4,8 C 0,0 km/h (0 Bft) 0,00 %
20.02.2015 08:00 -4,3 C 80 % 1025,2 hPa 0,0 l/m 0,0 km/h (0 Bft) S-SW 205 0 min 0,000 mm 1,0 UV-I 44 W/m -7,2 C -4,3 C 0,0 km/h (0 Bft) 0,00 %
20.02.2015 08:15 -3,2 C 84 % 1024,8 hPa 0,0 l/m 0,0 km/h (0 Bft) S 186 0 min 0,000 mm 1,0 UV-I 57 W/m -5,5 C -3,2 C 0,0 km/h (0 Bft) 0,00 %
20.02.2015 08:30 -2,6 C 83 % 1024,5 hPa 0,0 l/m 0,0 km/h (0 Bft) SO 129 0 min 0,000 mm 1,0 UV-I 70 W/m -5,1 C -2,6 C 0,0 km/h (0 Bft) 0,00 %
20.02.2015 08:45 -2,6 C 78 % 1024,7 hPa 0,0 l/m 0,4 km/h (0 Bft) SO 137 0 min 0,000 mm 1,0 UV-I 85 W/m -5,9 C -2,6 C 4,0 km/h (1 Bft) 0,00 %
20.02.2015 09:00 -2,0 C 82 % 1024,5 hPa 0,0 l/m 0,0 km/h (0 Bft) S 179 0 min 0,000 mm 1,0 UV-I 95 W/m -4,7 C -2,0 C 0,0 km/h (0 Bft) 0,00 %
20.02.2015 09:15 -2,1 C 82 % 1024,3 hPa 0,0 l/m 0,0 km/h (0 Bft) O-NO 76 0 min 0,000 mm 1,0 UV-I 120 W/m -4,7 C -2,1 C 0,0 km/h (0 Bft) 0,00 %
20.02.2015 09:30 -2,1 C 83 % 1024,0 hPa 0,0 l/m 0,0 km/h (0 Bft) SO 136 0 min 0,000 mm 2,0 UV-I 141 W/m -4,6 C -2,1 C 0,0 km/h (0 Bft) 0,00 %
20.02.2015 09:45 -2,0 C 83 % 1024,0 hPa 0,0 l/m 0,0 km/h (0 Bft) NW 304 0 min 0,000 mm 2,0 UV-I 167 W/m -4,5 C -2,0 C 0,0 km/h (0 Bft) 0,00 %
20.02.2015 10:00 -1,8 C 83 % 1023,8 hPa 0,0 l/m 0,0 km/h (0 Bft) O-NO 58 0 min 0,000 mm 2,0 UV-I 168 W/m -4,3 C -1,8 C 0,0 km/h (0 Bft) 0,00 %
20.02.2015 10:15 -1,7 C 83 % 1023,7 hPa 0,0 l/m 0,0 km/h (0 Bft) W-SW 256 0 min 0,000 mm 2,0 UV-I 192 W/m -4,2 C -1,7 C 0,0 km/h (0 Bft) 0,00 %
20.02.2015 10:30 -1,2 C 82 % 1023,4 hPa 0,0 l/m 0,0 km/h (0 Bft) S 173 0 min 0,000 mm 2,0 UV-I 194 W/m -3,9 C -1,2 C 0,0 km/h (0 Bft) 0,00 %
20.02.2015 10:45 -0,5 C 80 % 1023,1 hPa 0,0 l/m 0,0 km/h (0 Bft) O 83 0 min 0,000 mm 2,0 UV-I 214 W/m -3,5 C -0,5 C 0,0 km/h (0 Bft) 0,00 %
20.02.2015 11:00 -0,4 C 79 % 1023,0 hPa 0,0 l/m 0,0 km/h (0 Bft) N-NO 33 0 min 0,000 mm 2,0 UV-I 184 W/m -3,6 C -0,4 C 0,0 km/h (0 Bft) 0,00 %
20.02.2015 11:15 -0,1 C 80 % 1022,9 hPa 0,0 l/m 0,0 km/h (0 Bft) S 184 0 min 0,000 mm 2,0 UV-I 190 W/m -3,1 C -0,1 C 0,0 km/h (0 Bft) 0,00 %
20.02.2015 11:30 0,5 C 78 % 1022,3 hPa 0,0 l/m 0,0 km/h (0 Bft) N 350 0 min 0,000 mm 2,0 UV-I 240 W/m -2,9 C 0,5 C 0,0 km/h (0 Bft) 0,00 %
20.02.2015 11:45 0,0 C 80 % 1022,0 hPa 0,0 l/m 0,0 km/h (0 Bft) N-NW 341 0 min 0,000 mm 2,0 UV-I 250 W/m -3,0 C 0,0 C 0,0 km/h (0 Bft) 0,00 %
20.02.2015 12:00 0,7 C 79 % 1021,3 hPa 0,0 l/m 0,0 km/h (0 Bft) O-SO 115 15 min 0,000 mm 2,0 UV-I 310 W/m -2,5 C 0,7 C 0,0 km/h (0 Bft) 0,00 %
20.02.2015 12:15 1,2 C 76 % 1021,0 hPa 0,0 l/m 0,0 km/h (0 Bft) NO 49 15 min 0,000 mm 2,0 UV-I 320 W/m -2,5 C 1,2 C 0,0 km/h (0 Bft) 0,00 %
20.02.2015 12:30 1,8 C 73 % 1020,6 hPa 0,0 l/m 0,0 km/h (0 Bft) SO 136 15 min 0,000 mm 2,0 UV-I 333 W/m -2,5 C 1,8 C 0,0 km/h (0 Bft) 0,00 %
20.02.2015 12:45 2,2 C 75 % 1020,2 hPa 0,0 l/m 0,0 km/h (0 Bft) S 176 15 min 0,000 mm 2,0 UV-I 310 W/m -1,8 C 2,2 C 0,0 km/h (0 Bft) 0,00 %
20.02.2015 13:00 3,0 C 66 % 1019,9 hPa 0,0 l/m 0,0 km/h (0 Bft) O-SO 123 15 min 0,000 mm 2,0 UV-I 333 W/m -2,7 C 3,0 C 0,0 km/h (0 Bft) 0,00 %
20.02.2015 13:15 3,5 C 68 % 1019,5 hPa 0,0 l/m 0,0 km/h (0 Bft) N-NW 331 0 min 0,000 mm 2,0 UV-I 215 W/m -1,8 C 3,5 C 0,0 km/h (0 Bft) 0,00 %
20.02.2015 13:30 3,8 C 68 % 1019,0 hPa 0,0 l/m 0,0 km/h (0 Bft) W-SW 251 15 min 0,000 mm 2,0 UV-I 310 W/m -1,6 C 3,8 C 0,0 km/h (0 Bft) 0,00 %
20.02.2015 13:45 3,8 C 69 % 1018,9 hPa 0,0 l/m 0,7 km/h (0 Bft) SO 125 15 min 0,000 mm 2,0 UV-I 310 W/m -1,4 C 3,8 C 4,0 km/h (1 Bft) 0,00 %
20.02.2015 14:00 4,0 C 67 % 1018,4 hPa 0,0 l/m 0,0 km/h (0 Bft) O-SO 116 15 min 0,000 mm 2,0 UV-I 305 W/m -1,6 C 4,0 C 0,0 km/h (0 Bft) 0,00 %
20.02.2015 14:15 4,2 C 67 % 1017,7 hPa 0,0 l/m 0,0 km/h (0 Bft) W-SW 253 15 min 0,000 mm 2,0 UV-I 300 W/m -1,4 C 4,2 C 0,0 km/h (0 Bft) 0,00 %
20.02.2015 14:30 4,7 C 65 % 1017,4 hPa 0,0 l/m 0,0 km/h (0 Bft) S-SW 202 15 min 0,000 mm 2,0 UV-I 290 W/m -1,3 C 4,7 C 0,0 km/h (0 Bft) 0,00 %
20.02.2015 14:45 5,0 C 63 % 1017,3 hPa 0,0 l/m 0,0 km/h (0 Bft) NO 35 15 min 0,000 mm 1,0 UV-I 295 W/m -1,4 C 5,0 C 0,0 km/h (0 Bft) 0,00 %
20.02.2015 15:00 5,2 C 62 % 1016,8 hPa 0,0 l/m 0,0 km/h (0 Bft) SW 236 15 min 0,000 mm 1,0 UV-I 288 W/m -1,5 C 5,2 C 0,0 km/h (0 Bft) 0,00 %
20.02.2015 15:15 5,2 C 62 % 1016,5 hPa 0,0 l/m 0,0 km/h (0 Bft) SO 139 15 min 0,000 mm 1,0 UV-I 285 W/m -1,5 C 5,2 C 0,0 km/h (0 Bft) 0,00 %
20.02.2015 15:30 5,3 C 61 % 1016,0 hPa 0,0 l/m 0,0 km/h (0 Bft) W-SW 244 15 min 0,000 mm 1,0 UV-I 280 W/m -1,6 C 5,3 C 0,0 km/h (0 Bft) 0,00 %
20.02.2015 15:45 5,3 C 61 % 1015,7 hPa 0,0 l/m 0,0 km/h (0 Bft) S-SW 209 15 min 0,000 mm 1,0 UV-I 275 W/m -1,6 C 5,3 C 0,0 km/h (0 Bft) 0,00 %
20.02.2015 16:00 5,4 C 60 % 1015,6 hPa 0,0 l/m 0,0 km/h (0 Bft) S-SW 195 15 min 0,000 mm 1,0 UV-I 270 W/m -1,7 C 5,4 C 0,0 km/h (0 Bft) 0,00 %
20.02.2015 16:15 5,3 C 61 % 1015,1 hPa 0,0 l/m 0,0 km/h (0 Bft) S-SW 193 15 min 0,000 mm 1,0 UV-I 260 W/m -1,6 C 5,3 C 0,0 km/h (0 Bft) 0,00 %
20.02.2015 16:30 5,8 C 57 % 1014,8 hPa 0,0 l/m 0,0 km/h (0 Bft) S 191 15 min 0,000 mm 1,0 UV-I 184 W/m -2,0 C 5,8 C 0,0 km/h (0 Bft) 0,00 %
20.02.2015 16:45 6,6 C 54 % 1014,3 hPa 0,0 l/m 0,0 km/h (0 Bft) S 184 15 min 0,000 mm 0,0 UV-I 186 W/m -2,0 C 6,6 C 0,0 km/h (0 Bft) 0,00 %
20.02.2015 17:00 5,8 C 59 % 1014,1 hPa 0,0 l/m 0,0 km/h (0 Bft) S 175 15 min 0,000 mm 0,0 UV-I 87 W/m -1,6 C 5,8 C 0,0 km/h (0 Bft) 0,00 %
20.02.2015 17:15 4,3 C 64 % 1014,2 hPa 0,0 l/m 0,0 km/h (0 Bft) S-SW 198 0 min 0,000 mm 0,0 UV-I 17 W/m -1,9 C 4,3 C 0,0 km/h (0 Bft) 0,00 %
20.02.2015 17:30 3,4 C 69 % 1014,3 hPa 0,0 l/m 0,0 km/h (0 Bft) S-SW 194 0 min 0,000 mm 0,0 UV-I 4 W/m -1,7 C 3,4 C 0,0 km/h (0 Bft) 0,00 %
20.02.2015 17:45 2,2 C 69 % 1014,1 hPa 0,0 l/m 0,0 km/h (0 Bft) S-SW 195 0 min 0,000 mm 0,0 UV-I 0 W/m -2,9 C 2,2 C 0,0 km/h (0 Bft) 0,00 %
20.02.2015 18:00 2,0 C 69 % 1014,1 hPa 0,0 l/m 0,0 km/h (0 Bft) S 173 0 min 0,000 mm 0,0 UV-I 0 W/m -3,1 C 2,0 C 0,0 km/h (0 Bft) 0,00 %
20.02.2015 18:15 1,6 C 70 % 1014,0 hPa 0,0 l/m 0,0 km/h (0 Bft) S 191 0 min 0,000 mm 0,0 UV-I 0 W/m -3,3 C 1,6 C 0,0 km/h (0 Bft) 0,00 %
20.02.2015 18:30 1,1 C 72 % 1013,7 hPa 0,0 l/m 0,0 km/h (0 Bft) S-SW 201 0 min 0,000 mm 0,0 UV-I 0 W/m -3,4 C 1,1 C 0,0 km/h (0 Bft) 0,00 %
20.02.2015 18:45 1,0 C 71 % 1013,4 hPa 0,0 l/m 0,0 km/h (0 Bft) S-SW 193 0 min 0,000 mm 0,0 UV-I 0 W/m -3,7 C 1,0 C 0,0 km/h (0 Bft) 0,00 %
20.02.2015 19:00 0,7 C 73 % 1013,0 hPa 0,0 l/m 0,0 km/h (0 Bft) S-SW 207 0 min 0,000 mm 0,0 UV-I 0 W/m -3,6 C 0,7 C 0,0 km/h (0 Bft) 0,00 %
20.02.2015 19:15 -0,1 C 75 % 1013,0 hPa 0,0 l/m 0,0 km/h (0 Bft) S 180 0 min 0,000 mm 0,0 UV-I 0 W/m -4,0 C -0,1 C 0,0 km/h (0 Bft) 0,00 %
20.02.2015 19:30 -0,2 C 76 % 1012,9 hPa 0,0 l/m 0,0 km/h (0 Bft) S 187 0 min 0,000 mm 0,0 UV-I 0 W/m -3,9 C -0,2 C 0,0 km/h (0 Bft) 0,00 %
20.02.2015 19:45 -0,3 C 76 % 1012,4 hPa 0,0 l/m 0,0 km/h (0 Bft) S 189 0 min 0,000 mm 0,0 UV-I 0 W/m -4,0 C -0,3 C 0,0 km/h (0 Bft) 0,00 %
20.02.2015 20:00 -0,5 C 78 % 1012,3 hPa 0,0 l/m 0,0 km/h (0 Bft) S 179 0 min 0,000 mm 0,0 UV-I 0 W/m -3,9 C -0,5 C 0,0 km/h (0 Bft) 0,00 %
20.02.2015 20:15 -0,4 C 77 % 1012,0 hPa 0,0 l/m 0,0 km/h (0 Bft) S 181 0 min 0,000 mm 0,0 UV-I 0 W/m -3,9 C -0,4 C 0,0 km/h (0 Bft) 0,00 %
20.02.2015 20:30 -0,7 C 79 % 1011,9 hPa 0,0 l/m 0,0 km/h (0 Bft) S-SW 211 0 min 0,000 mm 0,0 UV-I 0 W/m -3,9 C -0,7 C 0,0 km/h (0 Bft) 0,00 %
20.02.2015 20:45 -1,0 C 80 % 1011,4 hPa 0,0 l/m 0,0 km/h (0 Bft) S-SW 195 0 min 0,000 mm 0,0 UV-I 0 W/m -4,0 C -1,0 C 0,0 km/h (0 Bft) 0,00 %
20.02.2015 21:00 -1,0 C 81 % 1011,4 hPa 0,0 l/m 0,0 km/h (0 Bft) S-SW 208 0 min 0,000 mm 0,0 UV-I 0 W/m -3,8 C -1,0 C 0,0 km/h (0 Bft) 0,00 %
20.02.2015 21:15 -1,1 C 81 % 1011,1 hPa 0,0 l/m 0,0 km/h (0 Bft) S-SW 209 0 min 0,000 mm 0,0 UV-I 0 W/m -3,9 C -1,1 C 0,0 km/h (0 Bft) 0,00 %
20.02.2015 21:30 -1,4 C 82 % 1010,7 hPa 0,0 l/m 0,0 km/h (0 Bft) S 187 0 min 0,000 mm 0,0 UV-I 0 W/m -4,1 C -1,4 C 0,0 km/h (0 Bft) 0,00 %
20.02.2015 21:45 -1,5 C 82 % 1010,5 hPa 0,0 l/m 0,0 km/h (0 Bft) S-SW 205 0 min 0,000 mm 0,0 UV-I 0 W/m -4,2 C -1,5 C 0,0 km/h (0 Bft) 0,00 %
20.02.2015 22:00 -1,5 C 82 % 1010,0 hPa 0,0 l/m 0,0 km/h (0 Bft) S-SW 194 0 min 0,000 mm 0,0 UV-I 0 W/m -4,2 C -1,5 C 0,0 km/h (0 Bft) 0,00 %
20.02.2015 22:15 -0,8 C 82 % 1009,7 hPa 0,0 l/m 0,0 km/h (0 Bft) S-SW 192 0 min 0,000 mm 0,0 UV-I 0 W/m -3,5 C -0,8 C 0,0 km/h (0 Bft) 0,00 %
20.02.2015 22:30 -1,0 C 81 % 1009,1 hPa 0,0 l/m 0,0 km/h (0 Bft) S 176 0 min 0,000 mm 0,0 UV-I 0 W/m -3,8 C -1,0 C 0,0 km/h (0 Bft) 0,00 %
20.02.2015 22:45 -0,4 C 80 % 1008,6 hPa 0,0 l/m 0,0 km/h (0 Bft) S 175 0 min 0,000 mm 0,0 UV-I 0 W/m -3,4 C -0,4 C 0,0 km/h (0 Bft) 0,00 %
20.02.2015 23:00 0,0 C 77 % 1008,4 hPa 0,0 l/m 0,0 km/h (0 Bft) SW 232 0 min 0,000 mm 0,0 UV-I 0 W/m -3,5 C 0,0 C 0,0 km/h (0 Bft) 0,00 %
20.02.2015 23:15 0,0 C 76 % 1007,8 hPa 0,0 l/m 0,0 km/h (0 Bft) S 189 0 min 0,000 mm 0,0 UV-I 0 W/m -3,7 C 0,0 C 0,0 km/h (0 Bft) 0,00 %
20.02.2015 23:30 -0,7 C 78 % 1008,0 hPa 0,0 l/m 0,0 km/h (0 Bft) W-SW 252 0 min 0,000 mm 0,0 UV-I 0 W/m -4,0 C -0,7 C 0,0 km/h (0 Bft) 0,00 %
20.02.2015 23:45 -1,2 C 81 % 1007,8 hPa 0,0 l/m 0,0 km/h (0 Bft) W-SW 252 0 min 0,000 mm 0,0 UV-I 0 W/m -4,0 C -1,2 C 0,0 km/h (0 Bft) 0,00 %
_ Min-Zeit 07:00 16:45 23:15 - 00:00 - - - - - - 06:45 07:00 00:00 00:00
Minimum _ -5,6 C 54 % 1007,8 hPa - 0,0 km/h (0 Bft) - - - - - - -8,4 C -5,6 C 0,0 km/h (0 Bft) 0,00 %
_ Max-Zeit 16:45 08:15 00:00 00:00 13:45 - - 12:00 00:00 09:30 12:30 14:30 16:45 08:45 00:00
Maximum _ 6,6 C 84 % 1027,9 hPa 0,0 l/m 0,7 km/h
SO (0 Bft)
- - 15 min 0,000 mm 2,0 UV-I 333 W/m -1,3 C 6,6 C 4,0 km/h
SO (1 Bft)
0,00 %
Durchschnitt _ -0,9 C 76 % 1019,7 hPa #0,0 l/m 0,0 km/h (0 Bft) N - #5:00 h #0,000 mm 1,6 UV-I 196 W/m -4,6 C -0,9 C 0,1 km/h (0 Bft) 0,00 %